[[{"header":{"parameterUnit":"m.s-1","parameterCategory":1,"la1":30.2991,"la2":30.254,"lo1":-89.0895,"lo2":-89.0444,"dy":0.0017,"dx":0.0017,"nx":28,"ny":28,"refTime":"2024-04-10T21:00:00:Z","depth":0,"parameterNumber":2,"parameterNumberName":"U-component_of_WINDS"},"data":[0,0,0,0,0,0,0,0,0,0,0,0,0,0,0,0,0,0,0,0,0,0,0,0,0,0,0,0,0,0,0,0,0,0,0,0,0,0,0,0,0,0,0,0,0,0,0,0,0,0,0,0,0,0,0,0,0,0,8.4116,8.4119,0,8.4329,8.4332,8.4334,8.4308,8.4305,8.4301,8.4298,8.4518,8.4527,8.4536,0,0,0,0,0,0,0,0,0,0,0,0,0,8.3692,8.37,8.4116,8.4119,8.4122,8.4329,8.4332,8.4335,8.4309,8.4304,8.43,8.4296,8.4515,8.4526,8.4537,0,0,0,0,0,0,0,0,0,0,0,0,0,8.3888,8.3702,8.4116,8.4133,8.4137,8.4328,8.4332,8.4336,8.4309,8.4304,8.4299,8.4294,8.4512,8.4525,8.4539,8.4726,0,0,8.458,8.4586,0,0,0,0,0,0,0,0,8.3877,8.3903,8.4128,8.4133,8.4137,8.4287,8.4263,8.4467,8.4311,8.4244,8.4298,8.4292,8.4446,8.4464,8.4516,8.4737,8.4746,8.4581,8.459,8.4596,8.4599,0,0,0,0,0,0,0,8.3863,8.3894,8.4201,8.4132,8.4137,8.4132,8.4155,8.4302,8.4371,8.425,8.4248,8.4274,8.4447,8.4503,8.4521,8.4749,8.4581,8.4593,8.4602,8.4607,8.514,8.5146,0,0,0,0,0,0,8.3845,8.3883,8.4194,8.4207,8.3991,8.4144,8.4169,8.4244,8.437,8.4384,8.4278,8.4272,8.4482,8.4505,8.4528,8.476,8.4595,8.4608,8.4616,8.5135,8.5142,8.5148,0,0,0,0,0,0,8.3836,8.3873,8.4185,8.4045,8.4084,8.4157,8.4242,8.4251,8.4306,8.4391,8.4404,8.4322,8.4479,8.4509,8.4678,8.4767,8.4614,8.4627,8.5127,8.5137,8.5145,8.5222,0,0,0,0,0,0,8.3823,8.3869,8.394,8.4047,8.4092,8.433,8.4247,8.4259,8.433,8.4324,8.4435,8.4449,8.4477,8.4658,8.4692,8.4783,8.4637,8.512,8.5132,8.5142,8.5212,8.5233,8.525,0,0,0,0,0,8.3808,8.3953,8.3944,8.3981,8.4181,8.4335,8.4361,8.439,8.4337,8.441,8.4465,8.4445,8.4752,8.4676,8.4713,8.481,8.5114,8.5128,8.5141,8.5203,8.5229,8.525,0,0,0,0,0,0,8.3855,8.3967,8.3958,8.4141,8.4229,8.433,8.4423,8.4415,8.452,8.451,8.4542,8.4568,8.4739,8.4791,8.4705,8.5001,8.4926,8.4948,8.496,8.4985,8.5004,8.4988,8.4649,0,0,0,0,0,8.3886,8.4,8.4093,8.4245,8.429,8.4349,8.4417,8.4432,8.4524,8.4562,8.4629,8.472,8.4838,8.4914,8.5026,8.522,8.5245,8.5305,8.5324,8.5339,8.5358,8.5468,8.5497,8.5193,8.5192,8.5192,0,0,8.3952,8.4028,8.4098,8.4257,8.4326,8.4446,8.438,8.4509,8.4599,8.4581,8.4746,8.4799,8.4903,8.5086,8.517,8.5135,8.5448,8.5357,8.5368,8.5379,8.5485,8.5514,8.5539,8.5202,8.52,8.5199,0,0,8.4135,8.4202,8.4338,8.441,8.4517,8.4556,8.4589,8.4693,8.4728,8.4893,8.4884,8.4992,8.5192,8.5268,8.5333,8.5549,8.5536,8.5585,8.5685,8.5792,8.5816,8.5837,8.5917,8.5945,8.5603,8.5603,8.5603,0,8.4204,8.4382,8.4409,8.4541,8.4612,8.4603,8.4743,8.4811,8.495,8.5,8.4959,8.5213,8.5282,8.5485,8.5538,8.559,8.5631,8.5572,8.581,8.5832,8.5852,8.5929,8.5959,8.5608,8.5608,8.5607,8.5607,0,8.4464,8.4588,8.4685,8.482,8.4903,8.5037,8.5087,8.5168,8.5177,8.5221,8.5392,8.5475,8.5606,8.5655,8.5664,8.5861,8.5836,8.5802,8.5728,8.5886,8.5959,8.5988,8.5616,8.5614,8.5613,8.5611,0,0,8.4679,8.4829,8.4865,8.4928,8.5046,8.5144,8.528,8.5408,8.5478,8.5575,8.5692,8.5863,8.5834,8.5908,8.5926,8.602,8.6189,8.5975,8.5978,8.6014,8.6415,8.6441,8.6474,8.6182,8.6187,8.6192,8.6407,0,8.4875,8.5114,8.5145,8.5358,8.5476,8.547,8.5589,8.5676,8.5722,8.583,8.5881,8.6003,8.5953,8.5998,8.6091,8.6149,8.6271,8.6134,8.6293,8.6298,8.6268,8.6511,8.6539,8.6737,8.6435,8.644,8.6443,0,8.5135,8.524,8.5465,8.5571,8.5621,8.5728,8.585,8.5952,8.6052,8.6079,8.6164,8.6171,8.6315,8.6234,8.6434,8.6341,8.6408,8.6447,8.6456,8.6472,8.6381,8.6537,8.6801,8.6832,8.6488,8.6484,8.6481,0,8.5273,8.547,8.5632,8.5685,8.5812,8.5888,8.5944,8.6039,8.6116,8.6223,8.6273,8.6396,8.6463,8.6559,8.6601,8.6538,8.68,8.6722,8.6829,8.6828,8.6884,8.688,8.7165,8.6925,8.6925,8.6924,8.6924,0,8.5489,8.5628,8.5696,8.5795,8.5952,8.5987,8.6141,8.6195,8.6281,8.6392,8.6395,8.65,8.6547,8.6661,8.6694,8.6857,8.6887,8.6915,8.6923,8.6916,8.6913,8.6961,8.6949,8.6932,8.693,8.6929,8.6927,0,8.567,8.5721,8.5897,8.6004,8.6034,8.6145,8.6237,8.6335,8.6381,8.6522,8.6558,8.663,8.6764,8.6815,8.6978,8.7001,8.719,8.7185,8.7156,8.7158,8.7263,8.7254,8.759,8.7637,8.7364,8.7367,8.7369,0,8.5805,8.5912,8.6031,8.6106,8.6166,8.6286,8.6364,8.6404,8.6486,8.661,8.6694,8.6827,8.6936,8.7151,8.7219,8.7345,8.7345,8.7455,8.7364,8.7355,8.735,8.7344,8.7356,8.7472,8.7474,8.7477,8.7478,0,8.6042,8.6062,8.6174,8.6297,8.6391,8.6489,8.6585,8.6646,8.6701,8.6793,8.693,8.7015,8.7183,8.7317,8.7447,8.7507,8.7504,8.7507,8.7538,8.7533,8.7513,8.7528,8.7204,8.7499,8.7497,8.7495,8.7494,8.7493,8.6206,8.6302,8.6401,8.6528,8.6604,8.6694,8.6792,8.6851,8.6966,8.7105,8.7122,8.727,8.7371,8.7546,8.7612,8.7731,8.7702,8.7747,8.7759,8.777,8.7779,8.7493,8.7754,8.7754,8.7753,8.7753,8.7752,0,8.6444,8.6509,8.6624,8.6759,8.6859,8.6846,8.6952,8.7037,8.7167,8.7262,8.7369,8.7529,8.766,8.7739,8.7871,8.7951,8.7953,8.7984,8.798,8.7995,8.7796,8.7756,8.7981,8.7981,8.7981,8.7981,8.7981,8.7981,8.658,8.6743,8.6776,8.6978,8.7042,8.7187,8.7249,8.7334,8.741,8.7587,8.7696,8.7747,8.7837,8.7976,8.8096,8.8116,8.8166,8.82,8.8219,8.8032,8.8008,8.7986,8.7949,8.821,8.8211,8.8408,8.841,8.8411]},{"header":{"parameterUnit":"m.s-1","parameterCategory":1,"la1":30.2991,"la2":30.254,"lo1":-89.0895,"lo2":-89.0444,"dy":0.0017,"dx":0.0017,"nx":28,"ny":28,"refTime":"2024-04-10T21:00:00:Z","depth":0,"parameterNumber":3,"parameterNumberName":"V-component_of_WINDS"},"data":[0,0,0,0,0,0,0,0,0,0,0,0,0,0,0,0,0,0,0,0,0,0,0,0,0,0,0,0,0,0,0,0,0,0,0,0,0,0,0,0,0,0,0,0,0,0,0,0,0,0,0,0,0,0,0,0,0,0,-3.1602,-3.1602,0,-3.1592,-3.1592,-3.1592,-3.1568,-3.1567,-3.1567,-3.1566,-3.1554,-3.1554,-3.1554,0,0,0,0,0,0,0,0,0,0,0,0,0,-3.1601,-3.1601,-3.1602,-3.1602,-3.1602,-3.1592,-3.1592,-3.1592,-3.1568,-3.1567,-3.1567,-3.1566,-3.1554,-3.1554,-3.1554,0,0,0,0,0,0,0,0,0,0,0,0,0,-3.1597,-3.1601,-3.1602,-3.1589,-3.1587,-3.1592,-3.1592,-3.1592,-3.1568,-3.1567,-3.1566,-3.1566,-3.1554,-3.1554,-3.1554,-3.1571,0,0,-3.1555,-3.1555,0,0,0,0,0,0,0,0,-3.1597,-3.1597,-3.1591,-3.159,-3.1588,-3.1581,-3.1587,-3.1585,-3.1568,-3.1575,-3.1566,-3.1565,-3.1563,-3.1563,-3.1562,-3.157,-3.157,-3.1555,-3.1555,-3.1555,-3.1555,0,0,0,0,0,0,0,-3.1598,-3.1598,-3.1598,-3.1591,-3.1589,-3.1583,-3.1582,-3.1587,-3.1574,-3.1575,-3.1573,-3.1572,-3.1562,-3.1562,-3.1562,-3.157,-3.1555,-3.1555,-3.1555,-3.1555,-3.1593,-3.1594,0,0,0,0,0,0,-3.16,-3.1598,-3.1599,-3.1598,-3.1591,-3.1584,-3.1583,-3.1584,-3.1573,-3.1571,-3.1573,-3.1571,-3.1562,-3.1562,-3.1561,-3.1582,-3.1555,-3.1555,-3.1556,-3.1593,-3.1594,-3.1595,0,0,0,0,0,0,-3.16,-3.16,-3.1599,-3.1598,-3.1597,-3.1585,-3.1586,-3.1584,-3.1584,-3.1572,-3.157,-3.1575,-3.1562,-3.1561,-3.1569,-3.1581,-3.1556,-3.1556,-3.1591,-3.1593,-3.1594,-3.1621,0,0,0,0,0,0,-3.16,-3.16,-3.1606,-3.1598,-3.1597,-3.1607,-3.1587,-3.1584,-3.1584,-3.1582,-3.1573,-3.1571,-3.1561,-3.1569,-3.157,-3.1581,-3.1556,-3.159,-3.1592,-3.1594,-3.1619,-3.1623,-3.1627,0,0,0,0,0,-3.16,-3.1613,-3.1607,-3.1607,-3.1604,-3.1608,-3.1607,-3.1596,-3.1585,-3.1591,-3.1585,-3.1572,-3.158,-3.157,-3.1571,-3.1582,-3.159,-3.1592,-3.1594,-3.1617,-3.1622,-3.1627,0,0,0,0,0,0,-3.1622,-3.1612,-3.1604,-3.1615,-3.1613,-3.1604,-3.161,-3.1601,-3.1601,-3.1598,-3.1583,-3.1582,-3.1593,-3.1588,-3.1578,-3.1599,-3.1583,-3.1585,-3.1601,-3.1606,-3.1609,-3.161,-3.1556,0,0,0,0,0,-3.1628,-3.1632,-3.1623,-3.1633,-3.1633,-3.1622,-3.1623,-3.1615,-3.1611,-3.161,-3.1603,-3.16,-3.1602,-3.1604,-3.1605,-3.1619,-3.1618,-3.1627,-3.1631,-3.1634,-3.1636,-3.1645,-3.165,-3.1601,-3.1601,-3.1601,0,0,-3.164,-3.1635,-3.1638,-3.1638,-3.1635,-3.164,-3.1621,-3.1626,-3.163,-3.161,-3.1618,-3.1614,-3.161,-3.1622,-3.1626,-3.1618,-3.1649,-3.1637,-3.1639,-3.1639,-3.1648,-3.1652,-3.1656,-3.1602,-3.1602,-3.1602,0,0,-3.1665,-3.1662,-3.1671,-3.1669,-3.1666,-3.1659,-3.1662,-3.1655,-3.1652,-3.166,-3.1646,-3.1651,-3.1654,-3.1652,-3.1652,-3.168,-3.1669,-3.1681,-3.17,-3.1709,-3.1713,-3.1717,-3.1728,-3.1732,-3.1683,-3.1683,-3.1683,0,-3.1681,-3.1687,-3.1677,-3.1684,-3.1684,-3.1669,-3.1679,-3.1678,-3.1675,-3.1676,-3.1667,-3.1673,-3.1669,-3.1681,-3.1688,-3.1688,-3.1691,-3.1681,-3.1714,-3.1717,-3.172,-3.173,-3.1734,-3.1685,-3.1684,-3.1684,-3.1684,0,-3.1708,-3.1713,-3.1721,-3.172,-3.1722,-3.173,-3.1721,-3.1724,-3.1717,-3.1712,-3.1721,-3.1717,-3.1717,-3.172,-3.1712,-3.1732,-3.1727,-3.1716,-3.17,-3.1726,-3.1736,-3.174,-3.1687,-3.1686,-3.1686,-3.1685,0,0,-3.1743,-3.1739,-3.1742,-3.1742,-3.1739,-3.1743,-3.1752,-3.1754,-3.1758,-3.1757,-3.1764,-3.1769,-3.176,-3.176,-3.1752,-3.176,-3.1785,-3.1748,-3.1748,-3.1756,-3.1809,-3.1817,-3.1821,-3.1778,-3.1779,-3.1779,-3.1809,0,-3.1767,-3.1782,-3.1774,-3.179,-3.1795,-3.1783,-3.179,-3.179,-3.1786,-3.179,-3.1786,-3.179,-3.1777,-3.1777,-3.1785,-3.178,-3.1795,-3.1778,-3.1785,-3.1785,-3.1786,-3.1826,-3.1834,-3.1862,-3.1813,-3.1813,-3.1814,0,-3.1797,-3.1799,-3.1816,-3.1814,-3.1816,-3.1823,-3.1826,-3.183,-3.183,-3.1827,-3.1829,-3.182,-3.1829,-3.1814,-3.1827,-3.1816,-3.1819,-3.1817,-3.1818,-3.1818,-3.1801,-3.1827,-3.1871,-3.1875,-3.1819,-3.1819,-3.1819,0,-3.1822,-3.183,-3.1841,-3.1842,-3.184,-3.1846,-3.1845,-3.1844,-3.1847,-3.185,-3.1852,-3.1855,-3.1857,-3.186,-3.1853,-3.1842,-3.1868,-3.1851,-3.1866,-3.1866,-3.187,-3.187,-3.1915,-3.1873,-3.1873,-3.1872,-3.1872,0,-3.185,-3.1861,-3.1853,-3.186,-3.1873,-3.1864,-3.1877,-3.1875,-3.1875,-3.1882,-3.1871,-3.1878,-3.1868,-3.1874,-3.1869,-3.1882,-3.1882,-3.188,-3.1879,-3.1881,-3.1882,-3.1882,-3.188,-3.1874,-3.1873,-3.1873,-3.1873,0,-3.188,-3.1875,-3.1887,-3.1885,-3.1885,-3.1894,-3.1893,-3.19,-3.1897,-3.1906,-3.1908,-3.1902,-3.1909,-3.1903,-3.1909,-3.1906,-3.1923,-3.1918,-3.1923,-3.1922,-3.1937,-3.1936,-3.1984,-3.199,-3.1943,-3.1944,-3.1944,0,-3.1897,-3.1906,-3.1906,-3.191,-3.1911,-3.1918,-3.1921,-3.1914,-3.1919,-3.1921,-3.1928,-3.1935,-3.1939,-3.1951,-3.1948,-3.1954,-3.1949,-3.1966,-3.195,-3.1953,-3.195,-3.195,-3.1951,-3.1969,-3.1969,-3.197,-3.197,0,-3.193,-3.1928,-3.1933,-3.1939,-3.1944,-3.1948,-3.1951,-3.1956,-3.1949,-3.1954,-3.1962,-3.1966,-3.1974,-3.1981,-3.1986,-3.1986,-3.1977,-3.1976,-3.1979,-3.1982,-3.1985,-3.1984,-3.1932,-3.1974,-3.1974,-3.1973,-3.1973,-3.1973,-3.1954,-3.1962,-3.1964,-3.1972,-3.1974,-3.1978,-3.1985,-3.1984,-3.199,-3.1997,-3.1993,-3.2003,-3.2005,-3.2011,-3.2012,-3.202,-3.2013,-3.2018,-3.2019,-3.2021,-3.2023,-3.1984,-3.2021,-3.2021,-3.202,-3.202,-3.202,0,-3.1987,-3.1989,-3.1996,-3.2001,-3.2008,-3.2001,-3.2005,-3.201,-3.202,-3.2022,-3.2028,-3.2039,-3.2046,-3.2045,-3.2052,-3.2059,-3.2055,-3.2061,-3.206,-3.2061,-3.2028,-3.2025,-3.2064,-3.2064,-3.2064,-3.2064,-3.2064,-3.2064,-3.2005,-3.2018,-3.2017,-3.2032,-3.2034,-3.2044,-3.2047,-3.2051,-3.2054,-3.2066,-3.2073,-3.2072,-3.2074,-3.2082,-3.2089,-3.2089,-3.2092,-3.2099,-3.2097,-3.2067,-3.2063,-3.2059,-3.2055,-3.21,-3.21,-3.2129,-3.2129,-3.213]}]]